{"data":{"norad_id":59853,"epoch":"2026-05-25T04:30:28.416096Z","epoch_age_seconds":52052,"freshness":"FRESH","line1":"1 59853U 24097U   26145.18782889 -.00000367  00000+0 -38163-5 0  9994","line2":"2 59853  43.0016 202.5568 0001570 281.2247  78.8428 15.27567894113616","mean_motion":15.27567894,"eccentricity":0.000157,"inclination_deg":43.0016,"raan_deg":202.5568,"arg_perigee_deg":281.2247,"mean_anomaly_deg":78.8428,"bstar":-3.8163e-6,"rev_number":11361,"period_min":94.267495779143,"perigee_km":482.00813408984,"apogee_km":484.16255790648,"semimajor_km":6861.2223459982,"source":"CELESTRAK","updated_at":"2026-05-25T13:38:19.088875Z"}}